sat.trackr.live / text

‹ back to catalog

STARLINK-37072

NORAD 68153 · 2026-049M

PAYLOAD ACTIVE UNKNOWN

§ Identity

Operator
Country
US
Launch date
2026-03-13
Launch site
AFWTR
Launch vehicle
Mass (kg)
RCS (m²)

Purposes: comms

External: N2YO · Heavens-Above · Gunter

§ Orbital elements

Epoch: 2026-05-25T01:45:30.123648Z

Period
93.91 min
Inclination
97.2852°
Eccentricity
0.0000959
Mean motion
15.33436542 rev/d
Perigee alt
464.9 km
Apogee alt
466.2 km
Semi-major
6,843.7 km
B*
1.4497e-3
RAAN
166.7380°
Arg perigee
145.2859°
Mean anomaly
214.8446°
Rev number
1,135

§ Raw data

STARLINK-370721 68153U 26049M   26145.07326532  .00047006  00000+0  14497-2 0  99932 68153  97.2852 166.7380 0000959 145.2859 214.8446 15.33436542 11351

JSON: /api/v1/satellites/68153 · /tle

For live sub-satellite position, see the globe view (requires WebGL).

§ Visibility from observer

Set your observer location to see the next 7 days of passes ≥ 10°. The values pass through the URL so the page stays shareable.

No JS? Fill the form by hand. The geolocation button needs JavaScript.